TimeCST,TemperatureF,Dew PointF,Humidity,Sea Level PressureIn,VisibilityMPH,Wind Direction,Wind SpeedMPH,Gust SpeedMPH,PrecipitationIn,Events,Conditions,WindDirDegrees,DateUTC
12:00 AM,70,70,99,30.02,6,Calm,Calm,,,,Haze,,2013-12-02 06:00:00
12:00 AM,69.8,69.8,100,30.01,6.2,Calm,Calm,-,N/A,,Mostly Cloudy,0,2013-12-02 06:00:00
1:00 AM,69.8,69.8,100,30.01,6.2,ESE,3.5,-,N/A,,Mostly Cloudy,120,2013-12-02 07:00:00
3:00 AM,69,69,100,29.96,6,Calm,Calm,,,,Haze,,2013-12-02 09:00:00
3:00 AM,69.8,69.8,100,29.95,6.2,Calm,Calm,-,N/A,,Mostly Cloudy,0,2013-12-02 09:00:00
4:00 AM,69.8,69.8,100,29.95,6.2,Calm,Calm,-,N/A,,Mostly Cloudy,0,2013-12-02 10:00:00
5:00 AM,68.0,68.0,100,29.95,6.2,Calm,Calm,-,N/A,,Mostly Cloudy,0,2013-12-02 11:00:00
6:00 AM,68,68,98,29.97,6,Calm,Calm,,,,Haze,,2013-12-02 12:00:00
6:00 AM,68.0,68.0,100,29.95,6.2,Calm,Calm,-,N/A,,Scattered Clouds,0,2013-12-02 12:00:00
7:00 AM,68.0,68.0,100,29.98,6.2,SW,2.3,-,N/A,,Scattered Clouds,230,2013-12-02 13:00:00
8:00 AM,71.6,71.6,100,29.98,6.2,SSW,5.8,-,N/A,,Partly Cloudy,200,2013-12-02 14:00:00
9:00 AM,77,72,80,29.99,6,South,5.8,,,,Haze,190,2013-12-02 15:00:00
9:00 AM,77.0,71.6,83,30.01,6.2,South,5.8,-,N/A,,Scattered Clouds,190,2013-12-02 15:00:00
10:00 AM,80.6,71.6,74,29.98,6.2,SSW,5.8,-,N/A,,Scattered Clouds,200,2013-12-02 16:00:00
11:00 AM,82.4,73.4,74,29.98,6.2,West,3.5,-,N/A,,Partly Cloudy,270,2013-12-02 17:00:00
12:00 PM,84.2,71.6,66,29.92,6.2,Calm,Calm,-,N/A,,Partly Cloudy,0,2013-12-02 18:00:00
1:00 PM,84.2,71.6,66,29.89,6.2,WNW,3.5,-,N/A,,Partly Cloudy,290,2013-12-02 19:00:00
2:00 PM,82.4,73.4,74,29.89,6.2,North,5.8,-,N/A,,Mostly Cloudy,10,2013-12-02 20:00:00
3:00 PM,82,74,70,29.86,6,NE,6.9,,,,Haze,40,2013-12-02 21:00:00
3:00 PM,82.4,73.4,74,29.86,6.2,NE,6.9,-,N/A,,Mostly Cloudy,40,2013-12-02 21:00:00
4:00 PM,80.6,73.4,79,29.86,6.2,NE,9.2,-,N/A,,Mostly Cloudy,40,2013-12-02 22:00:00
5:00 PM,78.8,73.4,83,29.89,6.2,NE,6.9,-,N/A,,Scattered Clouds,40,2013-12-02 23:00:00
6:00 PM,68,68,100,29.90,9,South,4.6,,,,Haze,190,2013-12-03 00:00:00
6:00 PM,75.2,73.4,94,29.89,6.2,North,4.6,-,N/A,,Scattered Clouds,10,2013-12-03 00:00:00
7:00 PM,73.4,73.4,100,29.92,6.2,NNE,4.6,-,N/A,,Scattered Clouds,30,2013-12-03 01:00:00
8:00 PM,73.4,73.4,100,29.92,6.2,North,4.6,-,N/A,,Partly Cloudy,350,2013-12-03 02:00:00
9:00 PM,72,72,99,29.95,7,North,2.3,,,,Haze,350,2013-12-03 03:00:00
9:00 PM,71.6,71.6,100,29.95,6.2,North,2.3,-,N/A,,Partly Cloudy,350,2013-12-03 03:00:00
10:00 PM,71.6,71.6,100,29.95,6.2,WSW,2.3,-,N/A,,Partly Cloudy,250,2013-12-03 04:00:00
11:00 PM,69.8,69.8,100,29.95,6.2,SSE,2.3,-,N/A,,Partly Cloudy,150,2013-12-03 05:00:00